Location: Lombard
(41.8800°N, 88.0080°W)
Time: 22:34:50
(UTC-06:00)

ARIANE 6 FM1 Upper Stage - Visible Passes

Search period start: 07 December 2025 00:00
Search period end: 17 December 2025 00:00
Orbit: 522 x 612 km, 62.0° (Epoch: 07 December)

Date Brightness Start Highest point End Pass type
(mag) Time Alt. Az. Time Alt. Az. Time Alt. Az.
07 Dec 3.7 16:55:06 10° NW 16:58:58 50° WSW 17:02:53 10° SSE visible
08 Dec 4.7 16:55:46 10° NW 16:59:21 32° WSW 17:02:58 10° S visible
09 Dec 5.7 16:56:36 10° WNW 16:59:41 22° WSW 17:02:48 10° SSW visible
10 Dec 6.2 16:57:48 10° W 16:59:58 14° WSW 17:02:10 10° SSW visible
13 Dec 5.9 05:19:55 10° SE 05:22:03 14° ESE 05:24:10 10° E visible
14 Dec 5.3 05:19:13 10° SSE 05:22:18 21° ESE 05:25:21 10° ENE visible
15 Dec 4.5 05:18:58 10° S 05:22:35 31° ESE 05:26:10 10° ENE visible
16 Dec 3.5 05:18:59 10° SSW 05:22:54 48° ESE 05:26:46 10° NE visible
